| time (UTC) | temp F | wind direction | speed knots | gust knots | rain 1hr in | rain 24hr in | rain mn in | humidity % | barometer mb |
| 20260502182557 | 73 | 28 | 5.2 | 8.7 | 0.00 | 0.00 | 0.00 | 46 | 1017.0 |
| 20260502182056 | 73 | 46 | 8.7 | 12.2 | 0.00 | 0.00 | 0.00 | 45 | 1017.0 |
| 20260502181557 | 73 | 14 | 5.2 | 12.2 | 0.00 | 0.00 | 0.00 | 45 | 1017.0 |
| 20260502181057 | 73 | 10 | 6.1 | 10.4 | 0.00 | 0.00 | 0.00 | 45 | 1017.0 |
| 20260502180557 | 72 | 7 | 4.3 | 10.4 | 0.00 | 0.00 | 0.00 | 43 | 1017.0 |
| 20260502164056 | 69 | 27 | 7.8 | 17.4 | 0.00 | 0.00 | 0.00 | 49 | 1018.0 |
| 20260502163556 | 69 | 47 | 10.4 | 10.4 | 0.00 | 0.00 | 0.00 | 52 | 1018.0 |
| 20260502163057 | 69 | 315 | 5.2 | 11.3 | 0.00 | 0.00 | 0.00 | 51 | 1018.0 |
| 20260502162556 | 69 | 32 | 6.1 | 13.0 | 0.00 | 0.00 | 0.00 | 53 | 1018.0 |
| 20260502162056 | 69 | 16 | 1.7 | 9.6 | 0.00 | 0.00 | 0.00 | 56 | 1018.0 |
| 20260502161556 | 68 | 346 | 6.1 | 9.6 | 0.00 | 0.00 | 0.00 | 55 | 1018.0 |
| 20260502161056 | 68 | 1 | 4.3 | 13.0 | 0.00 | 0.00 | 0.00 | 57 | 1018.0 |
| 20260502160556 | 68 | 42 | 4.3 | 11.3 | 0.00 | 0.00 | 0.00 | 59 | 1017.0 |
| 20260502152056 | 65 | 19 | 3.5 | 16.5 | 0.00 | 0.00 | 0.00 | 67 | 1017.0 |
| 20260502151557 | 65 | 26 | 6.1 | 8.7 | 0.00 | 0.00 | 0.00 | 68 | 1018.0 |
| 20260502151056 | 65 | 19 | 7.8 | 10.4 | 0.00 | 0.00 | 0.00 | 68 | 1018.0 |
| 20260502150556 | 65 | 39 | 4.3 | 13.0 | 0.00 | 0.00 | 0.00 | 68 | 1018.0 |
| 20260502130558 | 57 | 11 | 4.3 | 6.1 | 0.00 | 0.00 | 0.00 | 87 | 1016.0 |
| 20260502123556 | 56 | 8 | 2.6 | 7.0 | 0.00 | 0.00 | 0.00 | 90 | 1016.0 |
| 20260502123056 | 55 | 24 | 2.6 | 4.3 | 0.00 | 0.00 | 0.00 | 91 | 1016.0 |
| 20260502122556 | 55 | 322 | 4.3 | 5.2 | 0.00 | 0.00 | 0.00 | 91 | 1016.0 |
| 20260502122056 | 55 | 36 | 4.3 | 6.1 | 0.00 | 0.00 | 0.00 | 92 | 1016.0 |
| 20260502121556 | 54 | 14 | 2.6 | 7.0 | 0.00 | 0.00 | 0.00 | 92 | 1015.0 |
| 20260502121056 | 54 | 352 | 3.5 | 6.1 | 0.00 | 0.00 | 0.00 | 92 | 1016.0 |
| 20260502120556 | 54 | 40 | 2.6 | 6.1 | 0.00 | 0.00 | 0.00 | 92 | 1015.0 |
| 20260502115556 | 55 | 358 | 4.3 | 6.1 | 0.00 | 0.00 | 0.00 | 91 | 1015.0 |
| 20260502115056 | 55 | 16 | 1.7 | 4.3 | 0.00 | 0.00 | 0.00 | 90 | 1015.0 |
| 20260502114557 | 55 | 329 | 3.5 | 6.1 | 0.00 | 0.00 | 0.00 | 90 | 1015.0 |
| 20260502114056 | 55 | 319 | 3.5 | 7.8 | 0.00 | 0.00 | 0.00 | 90 | 1015.0 |
| 20260502113556 | 54 | 357 | 1.7 | 7.8 | 0.00 | 0.00 | 0.00 | 90 | 1015.0 |
| 20260502113056 | 54 | 19 | 1.7 | 7.8 | 0.00 | 0.00 | 0.00 | 90 | 1015.0 |
| 20260502112556 | 55 | 344 | 4.3 | 6.1 | 0.00 | 0.00 | 0.00 | 90 | 1015.0 |
| 20260502112056 | 55 | 318 | 3.5 | 5.2 | 0.00 | 0.00 | 0.00 | 90 | 1015.0 |
| 20260502111556 | 55 | 352 | 5.2 | 5.2 | 0.00 | 0.00 | 0.00 | 90 | 1015.0 |
| 20260502111057 | 55 | 303 | 1.7 | 5.2 | 0.00 | 0.00 | 0.00 | 89 | 1015.0 |
| 20260502110556 | 55 | 14 | 2.6 | 5.2 | 0.00 | 0.00 | 0.00 | 89 | 1015.0 |
| 20260502110056 | 55 | 4 | 1.7 | 5.2 | 0.00 | 0.00 | 0.00 | 89 | 1015.0 |
| 20260502105556 | 55 | 42 | 3.5 | 6.1 | 0.00 | 0.00 | 0.00 | 89 | 1015.0 |
| 20260502105056 | 55 | 2 | 1.7 | 5.2 | 0.00 | 0.00 | 0.00 | 89 | 1015.0 |
| 20260502104556 | 55 | 355 | 1.7 | 4.3 | 0.00 | 0.00 | 0.00 | 88 | 1015.0 |
| 20260502104056 | 55 | 3 | 1.7 | 6.1 | 0.00 | 0.00 | 0.00 | 88 | 1015.0 |
| 20260502103556 | 55 | 344 | 2.6 | 3.5 | 0.00 | 0.00 | 0.00 | 86 | 1014.0 |
| 20260502103056 | 55 | 5 | 1.7 | 6.1 | 0.00 | 0.00 | 0.00 | 85 | 1014.0 |
| 20260502102559 | 55 | 28 | 4.3 | 7.8 | 0.00 | 0.00 | 0.00 | 86 | 1014.0 |
| 20260502102056 | 55 | 338 | 2.6 | 5.2 | 0.00 | 0.00 | 0.00 | 86 | 1014.0 |
| 20260502101557 | 55 | 28 | 0.0 | 2.6 | 0.00 | 0.00 | 0.00 | 86 | 1014.0 |
| 20260502101056 | 55 | 22 | 1.7 | 7.0 | 0.00 | 0.00 | 0.00 | 86 | 1014.0 |
| 20260502100558 | 55 | 24 | 3.5 | 7.0 | 0.00 | 0.00 | 0.00 | 86 | 1014.0 |
| 20260502091057 | 55 | 15 | 5.2 | 7.0 | 0.00 | 0.00 | 0.00 | 86 | 1013.0 |
| 20260502090556 | 55 | 36 | 6.1 | 10.4 | 0.00 | 0.00 | 0.00 | 86 | 1013.0 |
| 20260502071056 | 57 | 9 | 4.3 | 7.8 | 0.00 | 0.00 | 0.00 | 90 | 1013.0 |
| 20260502070556 | 57 | 306 | 1.7 | 7.8 | 0.00 | 0.00 | 0.00 | 90 | 1013.0 |
| 20260502070056 | 57 | 10 | 2.6 | 7.8 | 0.00 | 0.00 | 0.00 | 90 | 1013.0 |
| 20260502065556 | 57 | 11 | 2.6 | 6.1 | 0.00 | 0.00 | 0.00 | 91 | 1013.0 |
| 20260502065056 | 57 | 9 | 3.5 | 9.6 | 0.00 | 0.00 | 0.00 | 92 | 1013.0 |
| 20260502064556 | 57 | 353 | 6.1 | 10.4 | 0.00 | 0.00 | 0.00 | 92 | 1013.0 |
| 20260502064056 | 57 | 4 | 4.3 | 8.7 | 0.00 | 0.00 | 0.00 | 92 | 1013.0 |
| 20260502063557 | 57 | 331 | 5.2 | 7.8 | 0.00 | 0.00 | 0.00 | 92 | 1013.0 |
| 20260502063057 | 57 | 347 | 3.5 | 4.3 | 0.00 | 0.00 | 0.00 | 92 | 1013.0 |
| 20260502062556 | 57 | 19 | 1.7 | 7.8 | 0.00 | 0.00 | 0.00 | 92 | 1013.0 |
| 20260502062056 | 57 | 359 | 6.1 | 11.3 | 0.00 | 0.00 | 0.00 | 92 | 1013.0 |
| 20260502061557 | 57 | 14 | 7.0 | 9.6 | 0.00 | 0.00 | 0.00 | 92 | 1013.0 |
| 20260502061057 | 57 | 337 | 2.6 | 7.8 | 0.00 | 0.00 | 0.00 | 92 | 1013.0 |
| 20260502060556 | 57 | 341 | 2.6 | 7.0 | 0.00 | 0.00 | 0.00 | 92 | 1013.0 |
| 20260502060056 | 57 | 358 | 7.8 | 12.2 | 0.00 | 0.00 | 0.00 | 92 | 1013.0 |
| 20260502055556 | 57 | 5 | 2.6 | 5.2 | 0.00 | 0.00 | 0.00 | 91 | 1013.0 |
| 20260502055057 | 57 | 28 | 2.6 | 9.6 | 0.00 | 0.00 | 0.00 | 91 | 1013.0 |
| 20260502054556 | 57 | 45 | 6.1 | 10.4 | 0.00 | 0.00 | 0.00 | 92 | 1013.0 |
| 20260502054056 | 57 | 1 | 3.5 | 13.9 | 0.00 | 0.00 | 0.00 | 92 | 1013.0 |
| 20260502053556 | 57 | 4 | 3.5 | 7.8 | 0.00 | 0.00 | 0.00 | 92 | 1013.0 |
| 20260502053056 | 57 | 18 | 9.6 | 13.0 | 0.00 | 0.00 | 0.00 | 93 | 1013.0 |
| 20260502052556 | 57 | 18 | 7.8 | 10.4 | 0.00 | 0.00 | 0.00 | 93 | 1013.0 |
| 20260502052056 | 57 | 338 | 3.5 | 11.3 | 0.00 | 0.00 | 0.00 | 94 | 1013.0 |
| 20260502051556 | 57 | 6 | 7.8 | 11.3 | 0.00 | 0.00 | 0.00 | 94 | 1013.0 |
| 20260502051058 | 57 | 12 | 6.1 | 11.3 | 0.00 | 0.00 | 0.00 | 95 | 1013.0 |
| 20260502050557 | 57 | 339 | 8.7 | 13.0 | 0.00 | 0.00 | 0.00 | 95 | 1013.0 |
| 20260502050056 | 57 | 352 | 8.7 | 9.6 | 0.00 | 0.00 | 0.00 | 95 | 1013.0 |
| 20260502045556 | 57 | 359 | 3.5 | 11.3 | 0.00 | 0.00 | 0.00 | 95 | 1013.0 |
| 20260502045057 | 57 | 305 | 1.7 | 7.0 | 0.00 | 0.00 | 0.00 | 95 | 1013.0 |
| 20260502044556 | 56 | 359 | 4.3 | 12.2 | 0.00 | 0.00 | 0.00 | 95 | 1013.0 |
| 20260502044056 | 56 | 334 | 7.0 | 9.6 | 0.00 | 0.00 | 0.00 | 96 | 1013.0 |
| 20260502043556 | 56 | 15 | 8.7 | 10.4 | 0.00 | 0.00 | 0.00 | 96 | 1013.0 |
| 20260502043057 | 56 | 51 | 4.3 | 9.6 | 0.00 | 0.00 | 0.00 | 96 | 1013.0 |
| 20260502042557 | 56 | 302 | 4.3 | 11.3 | 0.00 | 0.00 | 0.00 | 96 | 1013.0 |
| 20260502042056 | 56 | 27 | 6.1 | 7.0 | 0.00 | 0.00 | 0.00 | 96 | 1013.0 |
| 20260502041556 | 56 | 349 | 6.1 | 9.6 | 0.00 | 0.00 | 0.00 | 96 | 1013.0 |
| 20260502041057 | 56 | 18 | 7.8 | 9.6 | 0.00 | 0.00 | 0.00 | 96 | 1013.0 |
| 20260502040556 | 56 | 13 | 3.5 | 7.8 | 0.00 | 0.00 | 0.00 | 96 | 1013.0 |
| 20260502040056 | 56 | 351 | 2.6 | 7.0 | 0.00 | 0.00 | 0.00 | 96 | 1013.0 |
| 20260502035556 | 57 | 24 | 7.0 | 8.7 | 0.00 | 0.00 | 0.00 | 96 | 1013.0 |
| 20260502035056 | 57 | 339 | 2.6 | 8.7 | 0.00 | 0.00 | 0.00 | 96 | 1012.0 |
| 20260502034556 | 57 | 347 | 4.3 | 7.0 | 0.00 | 0.00 | 0.00 | 96 | 1012.0 |
| 20260502034056 | 57 | 335 | 3.5 | 11.3 | 0.00 | 0.00 | 0.00 | 97 | 1012.0 |
| 20260502033556 | 57 | 359 | 4.3 | 13.0 | 0.00 | 0.00 | 0.00 | 97 | 1012.0 |
| 20260502033057 | 57 | 349 | 1.7 | 12.2 | 0.00 | 0.00 | 0.00 | 97 | 1012.0 |
| 20260502032556 | 57 | 359 | 7.8 | 11.3 | 0.00 | 0.00 | 0.00 | 97 | 1012.0 |
| 20260502032058 | 57 | 358 | 4.3 | 7.0 | 0.00 | 0.00 | 0.00 | 97 | 1011.0 |
| 20260502031556 | 57 | 355 | 4.3 | 8.7 | 0.00 | 0.00 | 0.00 | 97 | 1011.0 |
| 20260502031057 | 57 | 27 | 7.8 | 12.2 | 0.00 | 0.00 | 0.00 | 97 | 1011.0 |
| 20260502030556 | 57 | 346 | 4.3 | 13.0 | 0.00 | 0.00 | 0.00 | 97 | 1011.0 |
| 20260502030100 | 57 | 300 | 7.0 | 8.7 | 0.00 | 0.00 | 0.00 | 97 | 1011.0 |
| 20260502025557 | 57 | 23 | 4.3 | 13.9 | 0.00 | 0.00 | 0.00 | 97 | 1010.0 |
| 20260502025056 | 57 | 17 | 2.6 | 13.9 | 0.00 | 0.00 | 0.00 | 97 | 1010.0 |
| 20260502024557 | 58 | 19 | 6.1 | 12.2 | 0.00 | 0.00 | 0.00 | 97 | 1011.0 |
| 20260502024056 | 58 | 10 | 5.2 | 6.1 | 0.00 | 0.00 | 0.00 | 97 | 1011.0 |
| 20260502023557 | 58 | 37 | 2.6 | 13.9 | 0.00 | 0.00 | 0.00 | 97 | 1011.0 |
| 20260502023056 | 58 | 9 | 7.8 | 13.0 | 0.00 | 0.00 | 0.00 | 98 | 1011.0 |
| 20260502022556 | 59 | 5 | 5.2 | 8.7 | 0.00 | 0.00 | 0.00 | 98 | 1011.0 |
| 20260502022056 | 59 | 355 | 2.6 | 5.2 | 0.00 | 0.00 | 0.00 | 98 | 1011.0 |
| 20260502021557 | 59 | 319 | 4.3 | 7.8 | 0.00 | 0.00 | 0.00 | 98 | 1011.0 |
| 20260502021056 | 59 | 306 | 7.8 | 8.7 | 0.00 | 0.00 | 0.00 | 98 | 1011.0 |
| 20260502020556 | 59 | 328 | 2.6 | 6.1 | 0.00 | 0.00 | 0.00 | 98 | 1011.0 |
| 20260502020056 | 59 | 356 | 5.2 | 7.8 | 0.00 | 0.00 | 0.00 | 98 | 1011.0 |
| 20260502015557 | 59 | 349 | 5.2 | 7.8 | 0.00 | 0.00 | 0.00 | 98 | 1011.0 |
| 20260502015056 | 59 | 350 | 1.7 | 9.6 | 0.00 | 0.00 | 0.00 | 98 | 1011.0 |
| 20260502014556 | 59 | 5 | 3.5 | 8.7 | 0.00 | 0.00 | 0.00 | 98 | 1010.0 |
| 20260502014056 | 59 | 16 | 9.6 | 12.2 | 0.00 | 0.00 | 0.00 | 98 | 1010.0 |
| 20260502013556 | 59 | 345 | 4.3 | 7.8 | 0.00 | 0.00 | 0.00 | 98 | 1010.0 |
| 20260502013056 | 59 | 315 | 2.6 | 8.7 | 0.00 | 0.00 | 0.00 | 98 | 1010.0 |
| 20260502012556 | 59 | 344 | 4.3 | 9.6 | 0.00 | 0.00 | 0.00 | 98 | 1009.0 |
| 20260502012056 | 59 | 332 | 9.6 | 9.6 | 0.00 | 0.00 | 0.00 | 98 | 1009.0 |
| 20260502011556 | 59 | 1 | 6.1 | 9.6 | 0.00 | 0.00 | 0.00 | 98 | 1010.0 |
| 20260502011057 | 59 | 9 | 4.3 | 9.6 | 0.00 | 0.00 | 0.00 | 98 | 1010.0 |
| 20260502010556 | 59 | 295 | 1.7 | 5.2 | 0.00 | 0.00 | 0.00 | 98 | 1009.0 |
| 20260502010056 | 59 | 4 | 7.0 | 7.0 | 0.00 | 0.00 | 0.00 | 98 | 1009.0 |
| 20260502005556 | 59 | 350 | 8.7 | 11.3 | 0.00 | 0.00 | 0.00 | 98 | 1008.0 |
| 20260502005057 | 59 | 0 | 7.0 | 8.7 | 0.00 | 0.00 | 0.00 | 98 | 1008.0 |
| 20260502004556 | 59 | 2 | 2.6 | 6.1 | 0.00 | 0.00 | 0.00 | 98 | 1008.0 |
| 20260502004100 | 59 | 14 | 2.6 | 8.7 | 0.00 | 0.00 | 0.00 | 97 | 1008.0 |
| 20260502003556 | 59 | 42 | 7.0 | 9.6 | 0.00 | 0.00 | 0.00 | 97 | 1008.0 |
| 20260502003057 | 59 | 312 | 1.7 | 9.6 | 0.00 | 0.00 | 0.00 | 97 | 1008.0 |
| 20260502002558 | 59 | 31 | 6.1 | 8.7 | 0.00 | 0.00 | 0.00 | 97 | 1009.0 |
| 20260502002057 | 60 | 343 | 8.7 | 11.3 | 0.00 | 0.00 | 0.00 | 97 | 1009.0 |
| 20260502001556 | 60 | 338 | 4.3 | 11.3 | 0.00 | 0.00 | 0.00 | 97 | 1008.0 |
| 20260502001056 | 60 | 5 | 4.3 | 10.4 | 0.00 | 0.00 | 0.00 | 97 | 1008.0 |
| 20260502000556 | 60 | 340 | 3.5 | 8.7 | 0.00 | 0.00 | 0.00 | 97 | 1008.0 |
| 20260502000056 | 59 | 9 | 4.3 | 11.3 | 0.00 | 0.00 | 0.00 | 97 | 1008.0 |
| 20260501235556 | 60 | 10 | 6.1 | 9.6 | 0.00 | 0.00 | 0.00 | 97 | 1008.0 |
| 20260501235056 | 60 | 349 | 6.1 | 11.3 | 0.00 | 0.00 | 0.00 | 97 | 1008.0 |
| 20260501234557 | 60 | 27 | 3.5 | 7.8 | 0.00 | 0.00 | 0.00 | 97 | 1007.0 |
| 20260501234056 | 60 | 26 | 7.0 | 13.0 | 0.00 | 0.00 | 0.00 | 97 | 1007.0 |
| 20260501233556 | 60 | 12 | 7.0 | 14.8 | 0.00 | 0.00 | 0.00 | 97 | 1008.0 |
| 20260501233057 | 60 | 350 | 5.2 | 12.2 | 0.00 | 0.00 | 0.00 | 97 | 1007.0 |
| 20260501232557 | 60 | 13 | 10.4 | 13.9 | 0.00 | 0.00 | 0.00 | 97 | 1007.0 |
| 20260501232056 | 61 | 324 | 3.5 | 14.8 | 0.00 | 0.00 | 0.00 | 97 | 1007.0 |
| 20260501231557 | 61 | 0 | 7.0 | 12.2 | 0.00 | 0.00 | 0.00 | 98 | 1007.0 |
| 20260501231057 | 61 | 352 | 5.2 | 10.4 | 0.00 | 0.00 | 0.00 | 98 | 1007.0 |
| 20260501230556 | 61 | 349 | 6.1 | 12.2 | 0.00 | 0.00 | 0.00 | 98 | 1007.0 |
| 20260501230056 | 61 | 352 | 6.1 | 9.6 | 0.00 | 0.00 | 0.00 | 98 | 1007.0 |
| 20260501225556 | 61 | 9 | 5.2 | 10.4 | 0.00 | 0.00 | 0.00 | 98 | 1007.0 |
| 20260501225056 | 61 | 21 | 3.5 | 8.7 | 0.00 | 0.00 | 0.00 | 98 | 1007.0 |
| 20260501224556 | 61 | 36 | 5.2 | 9.6 | 0.00 | 0.00 | 0.00 | 98 | 1008.0 |
| 20260501224056 | 61 | 28 | 6.1 | 7.8 | 0.00 | 0.00 | 0.00 | 98 | 1008.0 |
| 20260501223557 | 62 | 44 | 11.3 | 11.3 | 0.00 | 0.00 | 0.00 | 98 | 1007.0 |
| 20260501223056 | 62 | 11 | 8.7 | 8.7 | 0.00 | 0.00 | 0.00 | 98 | 1007.0 |
| 20260501222556 | 62 | 353 | 2.6 | 7.8 | 0.00 | 0.00 | 0.00 | 98 | 1007.0 |
| 20260501222056 | 62 | 98 | 2.6 | 6.1 | 0.00 | 0.00 | 0.00 | 98 | 1007.0 |
| 20260501221557 | 62 | 33 | 3.5 | 8.7 | 0.00 | 0.00 | 0.00 | 98 | 1007.0 |
| 20260501221056 | 62 | 29 | 4.3 | 7.8 | 0.00 | 0.00 | 0.00 | 98 | 1008.0 |
| 20260501220556 | 62 | 28 | 4.3 | 7.8 | 0.00 | 0.00 | 0.00 | 98 | 1008.0 |
| 20260501220056 | 62 | 21 | 5.2 | 10.4 | 0.00 | 0.00 | 0.00 | 98 | 1008.0 |
| 20260501215135 | 62 | 6 | 2.6 | 6.1 | 0.00 | 0.00 | 0.00 | 98 | 1008.0 |
| 20260501214557 | 62 | 23 | 1.7 | 6.1 | 0.00 | 0.00 | 0.00 | 98 | 1008.0 |
| 20260501214056 | 62 | 59 | 2.6 | 4.3 | 0.00 | 0.00 | 0.00 | 98 | 1008.0 |
| 20260501213557 | 62 | 26 | 4.3 | 7.0 | 0.00 | 0.00 | 0.00 | 98 | 1007.0 |
| 20260501213056 | 62 | 347 | 2.6 | 3.5 | 0.00 | 0.00 | 0.00 | 98 | 1007.0 |
| 20260501212557 | 63 | 19 | 6.1 | 6.1 | 0.00 | 0.00 | 0.00 | 98 | 1007.0 |
| 20260501212056 | 62 | 354 | 2.6 | 2.6 | 0.00 | 0.00 | 0.00 | 98 | 1007.0 |
| 20260501211557 | 63 | 45 | 4.3 | 10.4 | 0.00 | 0.00 | 0.00 | 98 | 1007.0 |
| 20260501211056 | 63 | 43 | 1.7 | 6.1 | 0.00 | 0.00 | 0.00 | 98 | 1006.0 |
| 20260501210556 | 63 | 4 | 8.7 | 9.6 | 0.00 | 0.00 | 0.00 | 98 | 1008.0 |
| 20260501210056 | 63 | 15 | 1.7 | 6.1 | 0.00 | 0.00 | 0.00 | 98 | 1007.0 |
| 20260501205557 | 63 | 28 | 5.2 | 7.0 | 0.00 | 0.00 | 0.00 | 98 | 1007.0 |
| 20260501205056 | 63 | 13 | 2.6 | 7.0 | 0.00 | 0.00 | 0.00 | 98 | 1007.0 |
| 20260501204556 | 63 | 86 | 3.5 | 6.1 | 0.00 | 0.00 | 0.00 | 98 | 1007.0 |
| 20260501204057 | 63 | 10 | 3.5 | 8.7 | 0.00 | 0.00 | 0.00 | 98 | 1007.0 |
| 20260501203556 | 63 | 347 | 4.3 | 7.8 | 0.00 | 0.00 | 0.00 | 98 | 1006.0 |
| 20260501203056 | 63 | 39 | 3.5 | 7.8 | 0.00 | 0.00 | 0.00 | 98 | 1006.0 |
| 20260501202557 | 63 | 6 | 1.7 | 5.2 | 0.00 | 0.00 | 0.00 | 98 | 1006.0 |
| 20260501202057 | 63 | 49 | 2.6 | 4.3 | 0.00 | 0.00 | 0.00 | 98 | 1006.0 |
| 20260501201556 | 63 | 77 | 1.7 | 6.1 | 0.00 | 0.00 | 0.00 | 98 | 1006.0 |
| 20260501201057 | 63 | 4 | 3.5 | 11.3 | 0.00 | 0.00 | 0.00 | 98 | 1006.0 |
| 20260501200557 | 63 | 340 | 1.7 | 6.1 | 0.00 | 0.00 | 0.00 | 98 | 1006.0 |
| 20260501200056 | 63 | 15 | 2.6 | 5.2 | 0.00 | 0.00 | 0.00 | 98 | 1007.0 |
| 20260501195556 | 63 | 65 | 0.9 | 6.1 | 0.00 | 0.00 | 0.00 | 98 | 1007.0 |
| 20260501195057 | 63 | 46 | 2.6 | 4.3 | 0.00 | 0.00 | 0.00 | 98 | 1007.0 |
| 20260501194558 | 63 | 16 | 3.5 | 5.2 | 0.00 | 0.00 | 0.00 | 98 | 1006.0 |
| 20260501193609 | 63 | 30 | 5.2 | 8.7 | 0.00 | 0.00 | 0.00 | 98 | 1006.0 |
| 20260501193056 | 63 | 120 | 3.5 | 12.2 | 0.00 | 0.00 | 0.00 | 98 | 1006.0 |
| 20260501192556 | 63 | 74 | 3.5 | 6.1 | 0.00 | 0.00 | 0.00 | 98 | 1005.0 |
| 20260501192056 | 63 | 56 | 5.2 | 12.2 | 0.00 | 0.00 | 0.00 | 98 | 1005.0 |
| 20260501191557 | 63 | 50 | 2.6 | 12.2 | 0.00 | 0.00 | 0.00 | 97 | 1006.0 |
| 20260501191056 | 63 | 8 | 5.2 | 9.6 | 0.00 | 0.00 | 0.00 | 97 | 1006.0 |
| 20260501190556 | 63 | 18 | 3.5 | 7.0 | 0.00 | 0.00 | 0.00 | 98 | 1006.0 |
| 20260501190058 | 63 | 13 | 7.8 | 11.3 | 0.00 | 0.00 | 0.00 | 98 | 1008.0 |
| 20260501185556 | 63 | 317 | 5.2 | 10.4 | 0.00 | 0.00 | 0.00 | 98 | 1007.0 |
| 20260501185056 | 63 | 53 | 4.3 | 8.7 | 0.00 | 0.00 | 0.00 | 98 | 1007.0 |
| 20260501184557 | 63 | 128 | 4.3 | 7.0 | 0.00 | 0.00 | 0.00 | 98 | 1006.0 |
| 20260501184056 | 63 | 162 | 2.6 | 4.3 | 0.00 | 0.00 | 0.00 | 98 | 1007.0 |
| 20260501183556 | 63 | 300 | 1.7 | 13.9 | 0.00 | 0.00 | 0.00 | 98 | 1006.0 |
| 20260501183056 | 63 | 348 | 4.3 | 11.3 | 0.00 | 0.00 | 0.00 | 98 | 1007.0 |